Temp
-10 -10 -10 -10 -10 -10 -9 -9 -9 -10 -10 -10 -10 -10 -10 -10 -10 -10 -10 -10 -10 -10 -10 -10 -10 -10 -10 -10 -10 -10 -10 -10 -10 -10 -9 -10 -10 -10 -10 -10 -10 -10 -11 -11 -10
-10 -10 -10 -10 -10 -10 -10 -10 -10 -10 -10 -10 -10 -10 -10 -10 -10 -10 -10 -10 -10 -10 -10 -10 -10 -10 -10 -10 -10 -10 -10 -10 -10 -10 -10 -10 -10 -10 -10 -10 -10 -10 -10 -10 -11
-10 -10 -10 -10 -10 -10 -10 -10 -10 -10 -10 -10 -10 -10 -10 -10 -10 -10 -10 -10 -10 -10 -10 -10 -10 -10 -10 -10 -10 -10 -10 -10 -10 -10 -10 -10 -10 -10 -10 -10 -10 -10 -10 -11 -10
-11 -11 -10 -10 -10 -10 -10 -10 -10 -10 -10 -10 -10 -10 -10 -10 -10 -10 -10 -10 -10 -10 -10 -10 -10 -10 -10 -10 -10 -10 -10 -10 -10 -10 -10 -10 -10 -10 -10 -10 -10 -10 -10 -11 -11
-11 -11 -11 -11 -11 -11 -10 -10 -10 -10 -10 -10 -10 -10 -10 -10 -10 -10 -10 -10 -10 -10 -10 -10 -10 -10 -10 -10 -10 -10 -10 -10 -10 -10 -10 -10 -10 -10 -10 -10 -10 -10 -11 -11 -11
-12 -12 -11 -11 -11 -11 -11 -11 -11 -11 -11 -10 -10 -10 -10 -10 -10 -10 -10 -10 -10 -10 -10 -10 -10 -10 -10 -10 -10 -10 -10 -10 -10 -10 -10 -10 -10 -10 -10 -10 -10 -10 -10 -10 -10
-12 -12 -12 -12 -11 -11 -11 -11 -11 -11 -11 -11 -11 -10 -10 -10 -10 -10 -10 -10 -10 -10 -10 -10 -10 -10 -10 -10 -10 -10 -10 -10 -10 -10 -10 -10 -10 -11 -10 -10 -10 -10 -10 -10 -10
-13 -13 -12 -12 -12 -12 -12 -11 -11 -11 -11 -11 -11 -11 -10 -11 -10 -10 -10 -10 -10 -10 -10 -10 -10 -10 -10 -10 -10 -10 -10 -10 -10 -10 -10 -10 -10 -10 -11 -10 -10 -10 -10 -10 -10
-13 -13 -13 -13 -12 -12 -12 -12 -12 -11 -11 -11 -11 -11 -11 -11 -11 -11 -10 -10 -10 -10 -10 -10 -10 -10 -10 -10 -10 -10 -11 -10 -10 -10 -10 -10 -10 -10 -11 -10 -10 -10 -10 -10 -10
-14 -13 -13 -13 -13 -13 -13 -12 -12 -12 -12 -11 -11 -11 -11 -11 -11 -11 -11 -11 -10 -10 -10 -10 -10 -10 -10 -11 -11 -11 -10 -10 -11 -10 -11 -11 -11 -10 -10 -10 -10 -10 -10 -10 -10
-14 -14 -13 -13 -13 -13 -12 -12 -12 -12 -12 -12 -11 -11 -11 -11 -11 -11 -11 -11 -11 -11 -11 -11 -10 -10 -11 -11 -11 -11 -11 -11 -11 -11 -11 -11 -11 -11 -10 -10 -10 -10 -10 -10 -10
-14 -14 -14 -13 -13 -13 -13 -12 -12 -12 -12 -12 -12 -11 -11 -11 -11 -11 -11 -11 -11 -11 -11 -10 -10 -11 -11 -11 -11 -11 -11 -11 -12 -11 -11 -11 -11 -10 -10 -10 -10 -10 -10 -11 -10
-15 -14 -14 -14 -13 -13 -13 -13 -13 -13 -12 -12 -12 -11 -11 -11 -11 -11 -11 -11 -11 -11 -11 -11 -11 -11 -11 -12 -12 -12 -12 -12 -12 -12 -11 -11 -10 -10 -10 -10 -10 -11 -11 -10 -10
-15 -15 -14 -14 -13 -13 -13 -14 -14 -14 -13 -11 -12 -11 -11 -11 -11 -11 -12 -11 -11 -11 -12 -11 -11 -11 -12 -12 -12 -12 -13 -13 -12 -12 -11 -11 -9 -10 -10 -11 -10 -11 -11 -10 -10
-14 -15 -14 -15 -14 -14 -14 -15 -15 -14 -14 -12 -11 -11 -11 -12 -11 -11 -12 -12 -11 -12 -12 -11 -12 -12 -12 -12 -13 -12 -13 -13 -13 -13 -12 -11 -10 -9 -10 -10 -11 -10 -10 -10 -10
-17 -15 -15 -15 -15 -14 -14 -15 -15 -15 -13 -12 -11 -11 -11 -12 -12 -11 -12 -12 -12 -12 -12 -12 -12 -12 -12 -12 -13 -13 -13 -13 -13 -12 -11 -11 -11 -9 -10 -10 -10 -10 -10 -10 -10
-16 -16 -15 -15 -15 -15 -15 -15 -15 -14 -12 -11 -11 -11 -12 -12 -12 -12 -12 -12 -12 -12 -12 -12 -12 -12 -13 -13 -13 -13 -13 -13 -13 -12 -11 -11 -11 -9 -10 -11 -11 -11 -11 -11 -11
-16 -17 -16 -16 -15 -15 -15 -15 -15 -13 -12 -12 -12 -12 -12 -12 -11 -12 -12 -12 -12 -13 -13 -13 -13 -13 -13 -14 -14 -13 -14 -14 -13 -13 -12 -11 -10 -9 -10 -11 -12 -11 -11 -11 -12
-17 -17 -17 -16 -16 -16 -16 -15 -14 -12 -12 -14 -13 -13 -12 -11 -12 -12 -12 -12 -13 -14 -14 -14 -14 -13 -14 -14 -14 -14 -13 -15 -14 -13 -12 -11 -10 -10 -10 -11 -12 -12 -12 -12 -13
-18 -18 -17 -17 -16 -17 -16 -16 -14 -13 -14 -14 -14 -14 -13 -13 -13 -13 -13 -12 -13 -14 -15 -14 -14 -13 -14 -14 -14 -14 -14 -14 -14 -14 -13 -11 -10 -9 -10 -10 -11 -12 -13 -13 -14
-19 -18 -17 -17 -18 -18 -17 -16 -13 -14 -14 -15 -14 -14 -13 -13 -13 -13 -13 -13 -13 -14 -15 -15 -14 -13 -14 -13 -14 -14 -14 -14 -15 -14 -13 -11 -10 -10 -10 -10 -11 -12 -13 -13 -14
-19 -19 -17 -18 -18 -19 -18 -14 -15 -14 -15 -15 -15 -14 -14 -15 -13 -13 -13 -14 -14 -15 -15 -15 -15 -14 -14 -14 -14 -14 -13 -14 -14 -13 -13 -13 -8 -11 -11 -11 -12 -12 -13 -13 -13
-20 -19 -18 -19 -19 -19 -18 -16 -17 -16 -15 -15 -15 -15 -15 -15 -15 -13 -13 -14 -15 -14 -15 -15 -15 -15 -14 -14 -13 -14 -14 -15 -15 -14 -11 -14 -8 -11 -12 -12 -13 -13 -14 -14 -14
-21 -20 -19 -19 -19 -18 -18 -17 -17 -16 -16 -15 -15 -16 -15 -15 -15 -14 -13 -14 -15 -15 -15 -15 -15 -14 -14 -14 -15 -14 -15 -15 -15 -13 -12 -11 -11 -12 -13 -13 -13 -14 -14 -14 -13
-21 -20 -20 -20 -19 -18 -18 -18 -17 -17 -16 -16 -15 -15 -15 -15 -15 -14 -14 -15 -15 -15 -16 -16 -15 -15 -14 -15 -16 -15 -14 -15 -14 -12 -14 -10 -13 -13 -13 -14 -14 -13 -13 -13 -14
-21 -21 -20 -20 -19 -19 -19 -18 -17 -17 -16 -16 -16 -15 -16 -16 -14 -14 -16 -16 -16 -16 -16 -16 -15 -16 -14 -14 -15 -15 -15 -13 -14 -13 -14 -13 -11 -14 -14 -14 -14 -14 -14 -15 -15
-22 -21 -21 -20 -20 -20 -19 -18 -17 -17 -17 -16 -16 -16 -16 -15 -15 -16 -16 -16 -16 -16 -16 -16 -16 -15 -15 -15 -15 -16 -12 -14 -14 -13 -14 -14 -12 -15 -15 -14 -14 -14 -15 -15 -15
Height
5815 5817 5820 5823 5827 5830 5833 5835 5838 5840 5842 5844 5847 5849 5850 5853 5855 5858 5859 5861 5863 5864 5865 5867 5868 5869 5870 5871 5871 5872 5872 5872 5873 5872 5872 5871 5871 5871 5870 5870 5869 5870 5870 5870 5870
5809 5813 5817 5820 5823 5827 5830 5833 5835 5838 5840 5842 5844 5847 5849 5851 5853 5855 5857 5859 5860 5862 5863 5864 5866 5867 5868 5869 5869 5870 5870 5870 5870 5870 5869 5869 5869 5869 5869 5868 5867 5868 5868 5868 5868
5804 5808 5812 5815 5818 5822 5826 5829 5832 5834 5837 5839 5842 5844 5847 5849 5851 5853 5855 5856 5858 5859 5860 5862 5863 5864 5865 5866 5866 5867 5867 5867 5868 5867 5867 5867 5867 5867 5867 5866 5866 5865 5865 5866 5866
5799 5802 5806 5811 5813 5817 5821 5824 5828 5831 5833 5836 5839 5841 5844 5846 5849 5850 5852 5854 5855 5856 5857 5859 5860 5861 5862 5863 5862 5863 5863 5864 5865 5864 5864 5864 5864 5863 5864 5864 5862 5863 5862 5863 5863
5794 5797 5800 5805 5809 5812 5815 5818 5822 5825 5828 5831 5834 5837 5839 5842 5845 5846 5848 5850 5852 5852 5854 5855 5856 5858 5858 5859 5859 5859 5860 5860 5860 5861 5860 5860 5860 5860 5861 5860 5860 5860 5860 5859 5859
5787 5791 5795 5799 5802 5806 5810 5813 5817 5820 5823 5826 5829 5832 5835 5838 5840 5842 5844 5846 5847 5849 5850 5851 5852 5853 5854 5855 5856 5855 5855 5855 5856 5856 5856 5856 5856 5857 5855 5855 5856 5856 5856 5857 5856
5780 5783 5788 5792 5796 5800 5803 5807 5810 5813 5816 5820 5823 5826 5829 5832 5835 5837 5839 5841 5843 5844 5846 5847 5848 5849 5850 5851 5851 5851 5850 5850 5851 5850 5851 5850 5852 5853 5851 5851 5852 5852 5852 5853 5853
5771 5775 5779 5784 5788 5792 5796 5799 5802 5806 5809 5813 5816 5820 5824 5826 5829 5832 5834 5836 5837 5839 5841 5842 5843 5844 5845 5845 5845 5846 5845 5843 5846 5844 5845 5844 5847 5846 5846 5847 5847 5847 5847 5848 5849
5762 5766 5770 5774 5779 5784 5788 5791 5795 5798 5801 5805 5810 5812 5817 5820 5822 5825 5827 5830 5831 5833 5834 5836 5837 5838 5839 5839 5840 5840 5839 5838 5838 5838 5839 5837 5838 5840 5840 5840 5842 5842 5843 5843 5843
5752 5757 5761 5765 5769 5774 5778 5782 5786 5789 5793 5797 5801 5806 5809 5815 5815 5816 5819 5822 5824 5825 5828 5830 5830 5832 5834 5833 5834 5830 5833 5833 5831 5832 5832 5830 5832 5831 5833 5834 5835 5836 5837 5837 5837
5742 5747 5751 5756 5760 5765 5769 5773 5778 5780 5783 5789 5792 5796 5800 5805 5807 5809 5811 5814 5816 5819 5820 5821 5823 5828 5826 5825 5825 5824 5826 5826 5826 5822 5824 5824 5824 5823 5826 5827 5829 5830 5830 5831 5832
5730 5736 5740 5746 5750 5755 5760 5763 5767 5769 5772 5777 5781 5786 5791 5794 5799 5801 5803 5806 5807 5810 5811 5815 5817 5819 5817 5818 5818 5818 5818 5819 5819 5813 5815 5816 5815 5817 5816 5822 5822 5822 5824 5824 5825
5716 5723 5728 5734 5739 5746 5750 5753 5753 5756 5758 5769 5772 5775 5781 5785 5787 5792 5794 5795 5799 5800 5804 5805 5809 5810 5809 5811 5809 5810 5809 5810 5809 5804 5806 5806 5804 5810 5812 5812 5816 5817 5815 5816 5817
5703 5707 5713 5720 5730 5734 5742 5740 5742 5746 5745 5755 5763 5766 5769 5773 5774 5780 5784 5787 5789 5793 5794 5794 5800 5799 5802 5801 5801 5799 5800 5800 5801 5797 5796 5797 5789 5801 5806 5806 5807 5811 5806 5807 5809
5689 5697 5701 5708 5712 5723 5730 5728 5731 5735 5733 5743 5748 5752 5760 5763 5767 5769 5773 5776 5780 5784 5785 5786 5788 5788 5790 5794 5790 5791 5792 5791 5792 5790 5785 5788 5782 5791 5798 5799 5800 5801 5798 5799 5800
5678 5684 5687 5693 5699 5711 5714 5715 5717 5718 5721 5725 5732 5740 5745 5751 5754 5756 5762 5768 5771 5772 5774 5775 5776 5779 5781 5783 5782 5782 5783 5782 5781 5780 5772 5783 5783 5771 5789 5790 5791 5790 5789 5789 5790
5667 5672 5671 5681 5693 5693 5699 5695 5699 5692 5721 5722 5722 5726 5732 5739 5743 5747 5751 5755 5760 5762 5763 5769 5767 5767 5771 5772 5773 5773 5774 5772 5770 5768 5767 5771 5770 5769 5774 5779 5781 5780 5779 5779 5780
5651 5657 5661 5668 5676 5680 5682 5677 5671 5702 5707 5711 5708 5710 5715 5723 5728 5734 5738 5743 5749 5752 5752 5753 5756 5759 5762 5764 5761 5760 5762 5761 5760 5758 5758 5759 5757 5762 5766 5769 5770 5771 5771 5771 5772
5631 5641 5645 5657 5662 5664 5662 5650 5666 5692 5694 5694 5693 5697 5702 5708 5717 5721 5727 5734 5738 5740 5742 5742 5744 5748 5752 5752 5751 5750 5750 5759 5751 5750 5747 5748 5750 5751 5752 5759 5760 5760 5761 5762 5763
5613 5622 5632 5643 5648 5647 5643 5639 5663 5672 5674 5676 5681 5687 5690 5693 5699 5706 5714 5724 5727 5730 5729 5730 5731 5732 5738 5741 5740 5740 5745 5744 5742 5740 5737 5736 5739 5739 5742 5745 5748 5751 5752 5752 5753
5595 5601 5622 5627 5629 5625 5622 5633 5654 5656 5661 5661 5670 5672 5678 5677 5683 5691 5702 5710 5713 5718 5719 5718 5719 5721 5724 5727 5732 5730 5728 5731 5733 5729 5728 5727 5729 5730 5732 5733 5736 5740 5741 5743 5744
5575 5582 5605 5609 5605 5608 5612 5633 5632 5639 5645 5651 5656 5660 5663 5665 5665 5675 5685 5694 5698 5702 5703 5707 5704 5708 5712 5714 5713 5714 5714 5715 5716 5720 5721 5719 5717 5722 5721 5723 5725 5728 5730 5731 5731
5558 5572 5584 5585 5586 5594 5603 5613 5616 5621 5630 5636 5641 5649 5649 5651 5656 5663 5669 5680 5682 5686 5690 5691 5690 5696 5698 5698 5697 5703 5706 5706 5705 5705 5705 5705 5709 5708 5716 5715 5714 5717 5717 5718 5718
5544 5552 5563 5565 5573 5582 5590 5598 5601 5610 5614 5622 5630 5631 5636 5639 5645 5650 5656 5661 5668 5671 5676 5673 5673 5679 5683 5688 5687 5686 5689 5691 5690 5690 5692 5693 5699 5701 5701 5700 5702 5703 5703 5705 5706
5526 5535 5544 5549 5559 5569 5576 5584 5589 5593 5601 5608 5612 5616 5624 5625 5631 5638 5643 5644 5647 5656 5659 5657 5660 5665 5670 5674 5674 5673 5674 5675 5674 5681 5675 5688 5682 5689 5687 5687 5688 5689 5689 5692 5694
5511 5520 5528 5537 5544 5552 5560 5566 5574 5583 5586 5591 5595 5609 5610 5611 5621 5632 5631 5632 5636 5640 5642 5644 5646 5651 5655 5659 5660 5659 5661 5662 5661 5665 5665 5673 5671 5674 5678 5676 5675 5677 5678 5679 5678
5494 5501 5508 5518 5527 5532 5542 5552 5562 5568 5572 5579 5584 5589 5589 5603 5615 5618 5615 5617 5620 5624 5626 5629 5633 5636 5638 5643 5640 5634 5651 5651 5650 5651 5655 5653 5664 5659 5659 5660 5662 5663 5663 5664 5665
Wind_Speed
34 33 32 31 29 27 26 24 23 21 20 18 16 15 14 13 11 11 10 11 12 12 12 11 11 11 10 9 9 9 11 11 11 12 12 11 7 8 9 9 10 9 8 6 8
36 35 34 33 32 30 28 26 24 23 22 20 19 17 16 15 13 13 11 11 12 13 12 12 12 13 12 12 12 12 14 13 13 14 13 11 10 10 12 12 13 12 10 9 9
37 37 36 35 34 33 31 30 28 26 24 23 21 20 19 17 15 14 13 13 13 14 14 14 15 15 15 16 17 17 17 16 15 16 14 12 12 13 13 13 13 14 14 12 11
38 38 38 37 37 36 35 33 32 30 28 26 25 24 22 21 19 17 16 15 14 15 15 16 17 18 19 19 21 20 19 18 17 17 16 15 15 16 15 14 16 15 16 16 15
40 40 40 39 39 38 37 36 34 33 31 30 29 27 26 24 23 21 19 18 17 16 17 18 19 19 21 21 22 21 20 21 20 20 19 17 18 18 16 17 17 16 16 17 18
43 43 42 42 42 41 40 39 37 36 34 32 31 30 29 27 26 24 23 22 20 19 19 19 20 21 20 22 23 24 24 24 24 23 22 21 21 18 21 21 18 18 18 18 18
47 46 45 45 44 44 43 42 40 38 37 36 35 33 32 31 29 28 27 26 25 23 22 22 23 23 23 25 26 27 28 28 26 27 24 25 23 20 21 22 20 21 20 19 18
50 50 49 48 47 47 46 45 43 42 41 40 39 37 35 34 33 31 30 30 29 28 26 26 26 26 27 28 27 28 28 31 28 29 28 29 22 25 24 23 23 23 22 21 20
54 53 52 51 50 49 48 48 47 46 45 44 42 41 39 37 36 35 35 33 33 31 31 30 29 29 29 28 29 29 30 32 34 32 31 33 30 26 26 26 24 24 23 23 23
57 57 57 55 54 53 51 51 50 50 49 48 46 44 43 39 39 39 39 37 37 36 36 34 34 33 30 31 30 35 34 32 34 33 32 34 32 32 28 28 26 26 24 25 26
61 60 60 59 58 57 56 55 54 55 53 50 50 48 47 44 43 43 42 41 41 40 38 39 39 34 32 35 35 37 34 34 32 38 37 37 37 37 32 30 29 29 29 28 29
65 65 63 63 62 60 60 59 58 58 57 54 55 52 51 48 47 46 46 45 45 43 44 43 40 35 37 38 37 37 38 37 35 42 41 38 40 36 36 30 33 34 31 31 29
62 71 67 66 65 63 62 61 61 61 63 58 56 57 54 52 51 49 50 50 48 47 45 45 41 39 40 39 42 40 41 38 40 44 42 40 41 37 36 36 34 33 36 36 32
44 66 70 73 67 64 62 62 62 62 65 64 60 59 58 56 57 54 52 53 52 47 45 49 42 45 41 41 41 42 39 40 38 41 42 42 48 38 36 38 37 33 40 40 36
38 48 60 70 70 72 64 60 61 63 67 69 67 66 62 61 60 59 55 54 52 47 47 50 47 46 43 38 41 41 38 39 38 41 46 44 49 37 33 35 35 35 40 41 39
56 50 51 58 60 64 67 66 69 68 75 75 71 66 67 65 64 64 59 54 52 52 52 50 48 45 41 38 40 40 39 41 43 44 52 42 44 53 36 37 37 36 38 39 37
66 60 54 48 51 55 56 68 69 68 73 77 75 73 71 67 64 62 60 57 53 53 54 46 48 48 43 41 42 42 42 44 48 50 51 47 49 49 43 40 37 36 36 36 35
68 62 67 57 53 52 52 60 68 68 68 66 71 74 70 68 63 61 59 58 54 46 46 46 46 43 38 40 38 44 44 45 48 51 53 53 52 47 45 41 34 33 32 33 32
71 65 67 64 57 44 52 62 60 53 69 72 75 73 70 68 65 64 60 54 52 50 44 41 45 43 38 38 41 45 48 40 50 52 55 55 52 49 43 35 33 33 31 29 31
71 65 67 65 64 60 53 63 51 51 56 62 74 73 74 75 73 67 61 52 47 46 46 51 49 50 46 45 48 50 47 48 52 56 58 56 51 47 42 38 35 33 32 30 30
71 71 70 66 68 72 63 60 45 55 58 59 55 61 64 71 76 74 65 58 53 49 50 51 53 52 50 50 46 50 53 54 54 57 59 56 48 48 45 45 40 35 32 31 29
72 72 68 69 69 70 66 54 59 57 60 59 57 59 60 61 67 70 67 61 58 56 56 54 55 57 55 55 59 59 57 55 54 54 54 57 46 45 46 44 39 35 34 34 34
71 71 67 69 72 68 69 63 61 65 57 59 59 58 60 63 64 61 61 59 56 57 55 56 57 55 58 59 59 56 54 51 46 50 52 56 46 48 43 43 41 38 40 40 39
70 70 69 71 69 69 65 65 66 62 62 59 56 57 58 62 63 59 58 57 56 61 57 57 59 59 61 59 58 56 51 49 51 55 53 51 49 46 42 42 39 40 44 43 43
73 70 70 72 73 68 64 69 72 64 68 65 65 63 59 62 64 64 63 65 63 58 60 65 65 64 62 57 58 59 57 57 55 51 53 46 49 43 44 44 46 48 50 47 46
72 71 70 70 73 73 72 62 71 73 63 63 71 62 64 62 62 57 62 64 61 60 60 62 61 61 62 58 57 58 60 58 59 55 52 49 50 48 45 46 49 51 52 53 54
74 72 72 72 71 74 76 74 68 70 66 59 61 68 68 64 57 54 55 58 60 60 57 58 57 55 57 56 55 60 54 55 55 55 52 53 45 47 47 50 50 51 53 54 56
Wind_Direction
212 211 209 210 209 209 209 208 207 204 199 196 195 192 190 190 194 197 202 206 208 210 214 219 222 228 236 251 267 287 300 307 312 317 324 307 286 275 269 266 267 278 288 278 274
210 210 211 210 209 208 207 207 206 204 201 200 199 199 199 199 201 206 209 217 221 226 227 230 233 239 248 259 272 285 291 301 301 309 314 296 284 281 282 274 270 269 272 282 283
209 210 211 210 209 208 207 207 208 207 207 207 207 209 209 211 208 215 218 223 230 232 236 239 244 248 255 263 273 281 288 289 296 299 304 289 284 277 285 276 274 276 277 272 273
210 210 211 212 210 209 210 210 212 213 213 213 215 215 216 216 218 219 225 231 236 243 244 247 251 257 261 267 274 280 285 285 288 293 297 288 282 281 283 279 270 268 274 277 278
214 213 212 212 213 213 214 214 217 219 219 219 220 220 222 224 226 229 231 236 241 247 250 253 256 260 264 269 274 279 278 281 286 288 293 285 281 284 280 274 269 267 269 274 278
219 218 217 217 217 216 218 219 221 223 223 224 225 226 227 229 231 233 238 241 245 250 254 256 259 263 268 272 274 275 278 280 284 286 286 284 281 281 273 270 268 265 265 269 273
222 222 222 222 221 222 222 223 224 226 227 228 230 231 232 234 236 238 241 245 249 252 257 262 264 268 272 275 276 276 279 281 283 285 283 281 283 272 272 266 265 266 268 267 269
226 225 225 225 225 226 226 227 227 229 230 232 233 234 236 237 240 243 245 248 251 254 259 262 266 270 277 276 276 278 280 281 281 281 281 282 281 272 271 263 262 264 266 269 270
229 229 228 228 228 229 230 231 231 232 233 235 236 238 239 240 244 246 248 251 254 257 260 264 268 272 275 275 279 282 278 278 280 281 282 280 277 271 265 263 261 261 264 269 270
233 232 231 231 231 232 233 234 235 235 236 238 238 241 242 243 247 248 251 252 255 258 262 267 269 273 276 276 278 274 277 280 285 279 277 277 276 272 264 261 259 260 266 271 270
239 237 235 234 234 234 235 237 238 239 238 240 241 243 244 245 246 250 253 255 258 260 264 265 270 276 272 271 273 276 279 279 277 276 276 276 272 272 266 264 265 261 265 271 273
235 237 240 238 237 236 238 238 240 242 240 241 244 242 245 247 247 250 253 256 258 261 263 268 273 272 270 273 274 274 276 276 273 275 272 271 269 265 268 264 264 265 266 268 273
236 237 236 239 242 241 240 242 243 244 244 239 243 246 247 248 248 249 253 256 258 261 266 270 271 270 273 275 275 274 273 272 270 270 271 271 266 265 267 270 267 268 269 270 274
243 240 239 237 237 241 243 246 247 248 249 244 243 248 249 250 251 251 254 257 261 264 267 268 271 275 273 272 271 269 269 268 270 270 273 269 270 265 269 269 270 275 275 272 274
246 238 238 242 240 238 240 245 247 249 251 247 243 244 247 251 254 252 255 257 261 263 264 270 271 268 269 270 267 270 269 269 266 266 269 267 277 275 270 270 278 274 273 272 273
249 250 250 237 240 245 244 246 247 246 243 247 247 246 246 247 250 255 256 256 259 261 262 265 268 268 267 267 266 265 264 267 267 266 264 272 275 278 280 277 280 278 278 275 273
244 240 245 243 239 241 236 243 242 244 248 250 253 256 254 253 252 253 256 259 261 262 264 265 264 266 262 263 262 265 265 266 266 265 270 273 270 277 282 284 282 277 277 274 270
242 241 247 248 234 242 237 243 245 242 248 253 253 254 256 256 255 253 254 256 259 261 265 261 257 261 268 262 261 254 256 256 264 270 273 273 274 276 278 284 285 279 272 270 268
241 239 240 240 245 230 238 248 242 242 244 247 250 254 257 259 259 260 260 256 256 255 251 259 260 259 259 261 265 258 253 266 264 268 274 276 279 284 280 281 281 277 271 265 259
238 234 236 239 243 243 248 249 240 238 245 243 246 252 256 259 260 260 260 260 261 261 259 259 258 262 261 257 259 262 269 268 269 272 275 274 276 277 282 282 277 274 272 271 270
238 236 232 235 238 246 241 243 238 240 241 248 245 245 252 256 256 257 261 261 261 258 254 258 261 264 263 265 271 268 268 272 270 267 268 275 281 279 277 281 282 280 273 270 271
238 237 232 229 235 239 240 238 243 244 243 250 249 252 254 256 254 254 257 259 262 261 260 260 259 262 265 268 271 271 268 269 270 274 273 268 270 280 277 279 282 279 276 276 275
237 237 233 232 231 229 241 236 246 242 245 248 248 248 252 254 257 254 256 255 258 259 257 260 260 261 264 264 266 274 276 275 269 267 270 266 271 278 279 277 278 276 274 274 274
235 235 231 230 230 230 233 239 244 243 244 250 251 253 250 251 255 254 255 258 256 256 257 257 260 261 264 272 276 274 269 266 266 265 267 271 272 274 275 273 269 268 270 272 276
233 233 233 232 231 230 228 234 238 247 243 246 249 250 254 254 252 252 254 257 259 255 255 258 263 266 265 270 271 268 267 267 263 266 261 273 264 266 264 261 262 265 268 273 277
232 234 233 233 231 230 227 230 235 242 245 246 248 247 249 253 256 258 259 258 259 262 261 263 264 263 262 265 264 262 263 261 259 257 268 269 267 267 275 269 266 267 269 272 275
230 232 233 232 233 231 228 229 232 238 246 247 252 246 246 249 253 258 259 257 258 257 259 260 259 260 264 269 264 263 259 258 266 263 266 266 268 268 267 270 270 270 270 272 275